Location: Grossmotten
(48.5500°N, 15.3833°E)
Time: 14:33:59
(UTC+00:00)

Cosmos 2058 - Pass Details

Date: 15 November 2019
Orbit: 562 x 585 km, 82.5° (Epoch: 04 December)

Event Time Altitude Azimuth Distance (km) Brightness Sun altitude
Rises 03:52:44 0° 188° (S) 2,798 6.4 -21.9°
Reaches altitude 10° 03:54:55 10° 188° (S) 1,902 5.5 -21.5°
Maximum altitude 03:59:08 89° 266° (W) 591 2.8 -20.9°
Drops below altitude 10° 04:03:22 10° 10° (N) 1,912 5.6 -20.2°
Sets 04:05:34 0° 10° (N) 2,814 6.5 -19.8°
